Studsat

operational
NORAD ID: 36796 Int'l Des: 2010-035 Owner: NMIT Country: IN
LEOCIRCULARRETROGRADE

关于 Studsat

正在加载描述...

实时位置

正在加载3D地球...

即将过境

高度历史

Altitude vs Time

uPlot chart will show altitude changes over time

两行轨道根数

1 36796U 10035B 26071.17069392 .00004923 00000-0 35995-3 0 9995
2 36796 98.1020 333.5058 0011474 7.5266 352.6129 15.04073029850566
Epoch: Mar 12, 2026 • Age: 35 hours

当前状态

高度 568.3 km
速度 7.58 km/s
星下点 77.29°N, 140.49°W
发射日期 Jul 12, 2010
运行时间 15.6 years
类型 other

技术详情

分类 Payload
质量 0.95 kg
干质量 0.95 kg
总质量 0.95 kg
长度 0.14 m
直径 0.10 m
跨度 0.14 m
形状 Cube
制造商 NMIT
平台类型 Cubesat 1U
阶段状态 In Orbit
所有者/国家 NMIT/IN

大型星座

Loading constellations...